Regional Weather Roundup
Issued by NWS

Home | Current Version | Previous Version | Graphics & Text | Print | Product List | Glossary On
Versions: 1 2 3 4 5 6 7 8 9 10 11 12 13 14 15 16 17 18 19 20 21 22 23 24 25 26 27 28 29 30 31 32 33 34 35 36 37 38 39 40 41 42 43 44 45 46 47 48 49 50
057
ASUS43 KMKX 011700
RWRWI

WISCONSIN REGIONAL WEATHER ROUNDUP
NATIONAL WEATHER SERVICE MILWAUKEE/SULLIVAN WI
1200 PM CDT SAT OCT 01 2016

NOTE: "FAIR" INDICATES FEW OR NO CLOUDS BELOW 12,000 FEET WITH NO
SIGNIFICANT WEATHER AND/OR OBSTRUCTIONS TO VISIBILITY.

WIZ001-002-006>008-014>016-023>028-011800-
NORTHWEST WISCONSIN

CITY           SKY/WX    TMP DP  RH WIND       PRES   REMARKS
SUPERIOR ARPT  MOSUNNY   60  54  79 NE9       30.22F
ASHLAND        CLOUDY    59  56  89 VRB6      30.21F
HAYWARD        CLOUDY    64  52  64 NE5       30.18F
SIREN          MOSUNNY   61  52  73 N7        30.19F
CUMBERLAND     PTSUNNY   63  52  67 NE6       30.17F
RICE LAKE      MOSUNNY   66  52  60 N6        30.18F
CHETEK         NOT AVBL
LADYSMITH      CLOUDY    61  53  75 N7        30.19F
EAU CLAIRE     NOT AVBL
MENOMONIE      PTSUNNY   65  54  66 NE5       30.15F
NEW RICHMOND   MOSUNNY   65  53  66 NE7       30.16F
OSCEOLA        SUNNY     65  54  66 NE3       30.19F
$$

WIZ003>005-009-010-017-018-011800-
NORTH CENTRAL WISCONSIN

CITY           SKY/WX    TMP DP  RH WIND       PRES   REMARKS
MANITOWISH WTR NOT AVBL
ARBOR VITAE    CLOUDY    59  55  84 NE5       30.19F
WOODRUFF       CLOUDY    59  55  84 NE5       30.19F
RHINELANDER    CLOUDY    61  51  70 NE5       30.17F
EAGLE RIVER    CLOUDY    59  51  74 N5        30.18F
LAND O LAKES   CLOUDY    60  52  74 NE7       30.21F
PHILLIPS       CLOUDY    57  53  87 N6        30.18F
TOMAHAWK       CLOUDY    60  51  73 NE3       30.18F
MEDFORD        CLOUDY    59  56  91 E8        30.16F
MERRILL        CLOUDY    61  55  82 NE9       30.17F
$$

WIZ029-030-035-036-043>047-011800-
CENTRAL WISCONSIN

CITY           SKY/WX    TMP DP  RH WIND       PRES   REMARKS
WAUSAU         CLOUDY    62  51  67 N7        30.12F
MOSINEE        PTSUNNY   63  55  77 N6        30.14F
MARSHFIELD     CLOUDY    64  52  64 NE10      30.12F
STEVENS POINT  PTSUNNY   63  52  68 NE10G17   30.13F
WAUPACA        PTSUNNY   67  56  67 NE7       30.10F
WAUTOMA        CLOUDY    63  55  75 NE8       30.10S
WISC RAPIDS    CLOUDY    64  54  69 E9        30.12F
CAMP DOUGLAS   NOT AVBL
$$

WIZ011>013-019>022-031-037>040-048>050-011800-
NORTHEAST WISCONSIN

CITY           SKY/WX    TMP DP  RH WIND       PRES   REMARKS
ANTIGO         CLOUDY    60  53  76 NE9       30.15F
SHAWANO        CLOUDY    64  57  78 NE8       30.12F
OCONTO         NOT AVBL
STURGEON BAY   LGT RAIN  57  55  93 NE10      30.12S
GREEN BAY      CLOUDY    65  59  81 NE12      30.09S
MANITOWOC      NOT AVBL
APPLETON       PTSUNNY   63  54  72 NE14G21   30.07F
CLINTONVILLE   CLOUDY    63  54  72 NE12G17   30.11F
OSHKOSH        CLOUDY    64  57  78 N9        30.07F
$$

WIZ032>034-041-042-053>061-011800-
SOUTHWEST WISCONSIN

CITY           SKY/WX    TMP DP  RH WIND       PRES   REMARKS
LA CROSSE      CLOUDY    65  57  75 NE10      30.11F
SPARTA         PTSUNNY   62  56  81 E8        30.12F
VIROQUA        CLOUDY    59  57  93 NE8       30.11S
BOSCOBEL       CLOUDY    64  58  80 VRB5      30.09F
PRAIRIE DU CHI CLOUDY    62  55  79 N6        30.09S
PLATTEVILLE    CLOUDY    61  61  99 N8        30.08S
$$

WIZ056-057-062-063-064-067-068-011800-
SOUTH CENTRAL WISCONSIN

CITY           SKY/WX    TMP DP  RH WIND       PRES   REMARKS
REEDSBURG      NOT AVBL
BARABOO/DELLS  CLOUDY    59  56  91 NE7       30.09F
LONE ROCK      CLOUDY    63  58  83 N9        30.09S
MINERAL POINT  CLOUDY    61  61 100 NE7       30.08F
MADISON        CLOUDY    61  57  87 N9        30.06F
MIDDLETON      CLOUDY    62  61  96 NE3       30.08F
WATERTOWN      CLOUDY    59  58  97 NE10      30.06S
MONROE         CLOUDY    61  59  94 N9        30.06S
JANESVILLE     PTSUNNY   63  61  94 N12       30.05
$$

WIZ051-052-058>065-066-070>072-011800-
SOUTHEAST WISCONSIN

CITY           SKY/WX    TMP DP  RH WIND       PRES   REMARKS
MILWAUKEE      LGT RAIN  61  58  90 N9        30.04F
WAUKESHA       NOT AVBL
MILWAUKEE/TIMM RAIN      57  55  94 N5        30.06F
RACINE         LGT RAIN  60  58  92 N7        30.05F
BURLINGTON     LGT RAIN  57  56  97 NE5       30.05S
KENOSHA        LGT RAIN  61  58  90 NE7       30.03F
FOND DU LAC    CLOUDY    61  58  90 NE14      30.08S FOG
SHEBOYGAN      CLOUDY    60  57  89 NE9       30.07F
WEST BEND      LGT RAIN  68  68 100 NE5       30.06F
JUNEAU         DRIZZLE   58  57  96 N5        30.08F
$$

LSZ147-162-011800-
LAKE SUPERIOR

STATION/POSITION TIME  TEMP    WIND        PRES    WAVE
                       AIR SEA DIR/SP/G            HT/PER
                 (UTC) (F)     (DEG/KT/KT) (MB)    (FT/S)
W MID LAKE BUOY  1550   57 56   40/ 10/ 12 1023.0S   1/ 3
DEVILS ISLAND    1600   54      10/  5/  6 1023.8F
SAXON HARBOR     1600   57     340/  4/  4 1023.0S
$$

LMZ867-665-643>646-011800-
LAKE MICHIGAN

STATION/POSITION TIME  TEMP    WIND        PRES    WAVE
                       AIR SEA DIR/SP/G            HT/PER
                 (UTC) (F)     (DEG/KT/KT) (MB)    (FT/S)
CHAMBERS ISLAND  1600   62      30/ 10/ 13 1020.0S
S GREEN BAY BUOY 1600   62 62   70/ 17/ 21 1019.0F
N MID LAKE BUOY  1550   60 64   80/ 16/ 17 1019.8F   4/ 5
NORTHPORT PIER   1600   60      90/ 12/ 15 1020.3F
SISTER BAY       1608   59     100/  6/ 10   N/A
KEWAUNEE LAKESHO 1600   62      50/  6/ 12 1018.8F
SHEBOYGAN LAKESH 1600   59      60/ 14/ 16 1018.0F
PORT WASHINGTON  1600   60      40/  8/ 11 1018.6
ATWATER BUOY     1600   59 59   30/ 12/ 14 1017.6F
MILWAUKEE LAKESH 1610   58      20/  8/  9   N/A
S MID LAKE BUOY  1550   61 67   90/ 14/ 17 1016.2F   3/ 4
KENOSHA   LAKESH 1600   60      50/ 14/ 16 1016.9S
$$

TC  - TEMPERATURE IN CELSIUS
VSB - VISIBILITY IN STATUTE MILES
WCI - WIND CHILL INDEX
HX  - HEAT INDEX





USA.gov is the U.S. government's official web portal to all federal, state and local government web resources and services.